REU974 FMEE-HKJK

Flight info

Callsign REU974
Flight time N/A
Altitude 34000
Route UVENA2J UVENA UN304 MAEVA UL433 BIRAL/N0476F360 UL433 MOKAD UQ315 UTEPI UTEPI1A
Aircraft B77W/H-SDE1E2E3FGHIJ2J3J4J5M1RWXY/LB1D1

Departure

Time 2026-04-20 06:00
Airport Roland Garros Airport (FMEE)

Arrival

Time N/A
Airport Jomo Kenyatta International Airport (HKJK)
Time Latitude Longitude Altitude Speed Heading
2026-04-20 05:34 -20.88958 55.50984 40 ft 0 kts 205°
2026-04-20 05:45 -20.88957 55.50984 63 ft 0 kts 205°
2026-04-20 05:48 -20.88957 55.50985 63 ft 0 kts 205°
2026-04-20 05:48 -20.88957 55.50984 63 ft 0 kts 205°
2026-04-20 05:49 -20.88957 55.50985 63 ft 0 kts 205°
2026-04-20 05:54 -20.88953 55.50987 63 ft 3 kts 207°
2026-04-20 05:54 -20.88936 55.50997 54 ft 2 kts 220°
2026-04-20 05:55 -20.88923 55.51011 54 ft 3 kts 235°
2026-04-20 05:55 -20.88913 55.51028 54 ft 3 kts 251°
2026-04-20 05:55 -20.88909 55.51048 54 ft 3 kts 266°
2026-04-20 05:55 -20.88909 55.51069 54 ft 3 kts 278°
2026-04-20 05:56 -20.88912 55.51089 54 ft 3 kts 286°
2026-04-20 05:56 -20.88919 55.51110 54 ft 3 kts 292°
2026-04-20 05:56 -20.88927 55.51129 54 ft 3 kts 296°
2026-04-20 05:56 -20.88936 55.51149 54 ft 3 kts 300°
2026-04-20 05:57 -20.88947 55.51167 54 ft 3 kts 302°
2026-04-20 05:57 -20.88958 55.51185 55 ft 3 kts 304°
2026-04-20 05:57 -20.88962 55.51192 55 ft 7 kts 305°
2026-04-20 05:58 -20.88961 55.51191 55 ft 1 kts 308°
2026-04-20 05:58 -20.88944 55.51184 54 ft 5 kts 343°
2026-04-20 05:59 -20.88892 55.51169 55 ft 12 kts 344°
2026-04-20 05:59 -20.88811 55.51141 55 ft 13 kts 346°
2026-04-20 05:59 -20.88751 55.51183 50 ft 1 kts 85°
2026-04-20 05:59 -20.88752 55.51190 50 ft 0 kts 93°
2026-04-20 06:00 -20.88752 55.51194 51 ft 5 kts 95°
2026-04-20 06:00 -20.88804 55.51487 53 ft 90 kts 103°
2026-04-20 06:00 -20.88998 55.52477 87 ft 176 kts 102°
2026-04-20 06:00 -20.89171 55.53809 927 ft 178 kts 72°
2026-04-20 06:01 -20.88217 55.54477 1282 ft 219 kts 349°
2026-04-20 06:01 -20.86760 55.54222 2113 ft 196 kts 343°
2026-04-20 06:01 -20.85532 55.53581 2751 ft 210 kts 302°
2026-04-20 06:01 -20.84844 55.52130 2923 ft 227 kts 302°
2026-04-20 06:02 -20.83625 55.50963 3057 ft 244 kts 331°
2026-04-20 06:02 -20.81983 55.50392 3427 ft 259 kts 340°
2026-04-20 06:02 -20.80234 55.49705 3868 ft 273 kts 334°
2026-04-20 06:02 -20.78429 55.49046 4539 ft 274 kts 348°
2026-04-20 06:03 -20.76534 55.48933 5251 ft 273 kts
2026-04-20 06:03 -20.74619 55.48971 5990 ft 277 kts
2026-04-20 06:03 -20.72678 55.48918 6666 ft 282 kts 357°
2026-04-20 06:03 -20.70693 55.48778 7268 ft 287 kts 355°
2026-04-20 06:04 -20.68699 55.48597 7987 ft 288 kts 354°
2026-04-20 06:04 -20.66690 55.48368 8671 ft 291 kts 353°
2026-04-20 06:04 -20.64722 55.47946 9462 ft 294 kts 341°
2026-04-20 06:04 -20.62800 55.47154 10086 ft 300 kts 337°
2026-04-20 06:05 -20.60859 55.46265 10377 ft 316 kts 336°
2026-04-20 06:05 -20.58767 55.45302 10537 ft 336 kts 337°
2026-04-20 06:05 -20.56549 55.44291 10620 ft 357 kts 337°
2026-04-20 06:05 -20.54251 55.43266 10949 ft 366 kts 337°
2026-04-20 06:06 -20.51877 55.42229 11511 ft 371 kts 337°
2026-04-20 06:06 -20.49473 55.41198 12285 ft 375 kts 338°
2026-04-20 06:06 -20.47042 55.40169 13309 ft 373 kts 337°
2026-04-20 06:06 -20.44612 55.39133 13878 ft 384 kts 337°
2026-04-20 06:07 -20.42074 55.38063 14474 ft 394 kts 337°
2026-04-20 06:07 -20.39513 55.36988 15372 ft 394 kts 336°
2026-04-20 06:07 -20.36990 55.35914 16201 ft 391 kts 337°
2026-04-20 06:07 -20.34414 55.34828 16837 ft 402 kts 336°
2026-04-20 06:08 -20.31835 55.33742 17661 ft 401 kts 336°
2026-04-20 06:08 -20.29194 55.32623 18191 ft 408 kts 336°
2026-04-20 06:08 -20.26608 55.31510 18766 ft 405 kts 333°
2026-04-20 06:08 -20.23972 55.30353 19005 ft 417 kts 338°
2026-04-20 06:09 -20.21239 55.29262 19787 ft 420 kts 339°
2026-04-20 06:09 -20.18504 55.28199 20801 ft 418 kts 339°
2026-04-20 06:09 -20.15737 55.27098 21350 ft 431 kts 339°
2026-04-20 06:09 -20.12903 55.25938 21929 ft 440 kts 338°
2026-04-20 06:10 -20.10024 55.24738 22585 ft 446 kts 338°
2026-04-20 06:10 -20.07128 55.23519 23359 ft 450 kts 338°
2026-04-20 06:10 -20.04191 55.22280 23989 ft 456 kts 338°
2026-04-20 06:10 -20.01263 55.21046 24534 ft 461 kts 338°
2026-04-20 06:11 -19.98249 55.19780 24986 ft 470 kts 338°
2026-04-20 06:11 -19.95178 55.18492 25403 ft 479 kts 338°
2026-04-20 06:11 -19.92042 55.17180 25852 ft 486 kts 338°
2026-04-20 06:11 -19.88871 55.15854 26347 ft 491 kts 338°
2026-04-20 06:12 -19.85675 55.14516 26866 ft 496 kts 336°
2026-04-20 06:12 -19.82460 55.13131 27388 ft 500 kts 336°
2026-04-20 06:12 -19.79223 55.11741 27910 ft 503 kts 337°
2026-04-20 06:12 -19.75985 55.10377 28406 ft 508 kts 337°
2026-04-20 06:13 -19.72684 55.08998 28856 ft 512 kts 337°
2026-04-20 06:13 -19.69348 55.07611 29299 ft 517 kts 337°
2026-04-20 06:13 -19.65977 55.06219 29770 ft 521 kts 338°
2026-04-20 06:13 -19.62588 55.04826 30206 ft 524 kts 337°
2026-04-20 06:14 -19.59172 55.03414 30582 ft 527 kts 337°
2026-04-20 06:14 -19.55772 55.02002 31168 ft 524 kts 337°
2026-04-20 06:14 -19.52395 55.00598 31803 ft 519 kts 337°
2026-04-20 06:14 -19.49044 54.99197 32409 ft 516 kts 336°
2026-04-20 06:15 -19.45709 54.97795 32968 ft 514 kts 337°
2026-04-20 06:15 -19.42427 54.96423 33458 ft 512 kts 336°
2026-04-20 06:15 -19.39120 54.95038 33979 ft 510 kts 336°
2026-04-20 06:15 -19.35819 54.93663 34422 ft 509 kts 336°
2026-04-20 06:16 -19.32526 54.92301 34846 ft 506 kts 336°
2026-04-20 06:16 -19.29249 54.90945 35274 ft 505 kts 336°
2026-04-20 06:16 -19.25978 54.89597 35651 ft 504 kts 336°
2026-04-20 06:16 -19.22713 54.88253 36022 ft 503 kts 335°
2026-04-20 06:17 -19.16169 54.85559 36070 ft 504 kts 336°
2026-04-20 06:17 -19.09657 54.82883 36071 ft 501 kts 335°
2026-04-20 06:18 -19.03206 54.80119 36101 ft 498 kts 330°
2026-04-20 06:18 -18.97342 54.76281 36083 ft 496 kts 319°
2026-04-20 06:19 -18.92219 54.71471 36064 ft 491 kts 311°
2026-04-20 06:19 -18.87300 54.66420 36085 ft 495 kts 312°
2026-04-20 06:20 -18.82327 54.61425 36083 ft 499 kts 313°
2026-04-20 06:20 -18.77239 54.56406 36079 ft 501 kts 313°
2026-04-20 06:21 -18.72150 54.51375 36057 ft 501 kts 313°
2026-04-20 06:21 -18.67072 54.46362 36068 ft 499 kts 313°
2026-04-20 06:22 -18.61903 54.41539 36078 ft 495 kts 320°
2026-04-20 06:22 -18.56039 54.37691 36064 ft 498 kts 331°
2026-04-20 06:23 -18.49720 54.34668 36076 ft 499 kts 333°
2026-04-20 06:23 -18.43359 54.31698 36071 ft 501 kts 333°
2026-04-20 06:24 -18.36989 54.28694 36068 ft 501 kts 332°
2026-04-20 06:24 -18.30620 54.25679 36066 ft 502 kts 332°
2026-04-20 06:25 -18.24246 54.22663 36063 ft 502 kts 332°
2026-04-20 06:25 -18.17914 54.19678 36061 ft 502 kts 332°
2026-04-20 06:26 -18.11532 54.16679 36064 ft 501 kts 332°
2026-04-20 06:26 -18.05199 54.13656 36065 ft 499 kts 331°
2026-04-20 06:27 -17.98884 54.10605 36060 ft 499 kts 332°
2026-04-20 06:27 -17.92549 54.07595 36062 ft 500 kts 332°
2026-04-20 06:28 -17.87280 54.05104 36061 ft 500 kts 332°
2026-04-20 06:28 -17.80934 54.02104 36059 ft 500 kts 332°
2026-04-20 06:29 -17.73546 53.98619 36059 ft 500 kts 332°
2026-04-20 06:29 -17.68274 53.96130 36059 ft 500 kts 332°
2026-04-20 06:30 -17.61924 53.93120 36053 ft 500 kts 332°
2026-04-20 06:30 -17.55583 53.90128 36054 ft 499 kts 332°
2026-04-20 06:31 -17.49239 53.87145 36054 ft 499 kts 332°
2026-04-20 06:31 -17.42916 53.84142 36052 ft 498 kts 332°
2026-04-20 06:32 -17.36635 53.81178 36064 ft 498 kts 332°
2026-04-20 06:32 -17.30308 53.78210 36058 ft 498 kts 332°
2026-04-20 06:33 -17.23989 53.75248 36053 ft 497 kts 332°
2026-04-20 06:33 -17.17668 53.72289 36053 ft 497 kts 332°
2026-04-20 06:34 -17.11354 53.69319 36054 ft 497 kts 332°
2026-04-20 06:35 -17.01900 53.64869 36052 ft 497 kts 332°
2026-04-20 06:35 -16.95587 53.61914 36048 ft 497 kts 332°
2026-04-20 06:36 -16.89273 53.58962 36051 ft 497 kts 332°
2026-04-20 06:36 -16.82962 53.56015 36053 ft 496 kts 332°
2026-04-20 06:37 -16.76651 53.53070 36049 ft 496 kts 332°
2026-04-20 06:37 -16.70377 53.50150 36049 ft 496 kts 332°
2026-04-20 06:38 -16.64073 53.47219 36048 ft 495 kts 332°
2026-04-20 06:38 -16.57778 53.44290 36045 ft 495 kts 332°
2026-04-20 06:39 -16.51476 53.41384 36049 ft 495 kts 332°
2026-04-20 06:39 -16.45186 53.38471 36048 ft 494 kts 332°
2026-04-20 06:40 -16.39306 53.34940 36042 ft 489 kts 320°
2026-04-20 06:40 -16.34155 53.30384 36028 ft 481 kts 310°
2026-04-20 06:41 -16.29448 53.25415 36040 ft 482 kts 310°
2026-04-20 06:41 -16.24720 53.20417 36046 ft 485 kts 310°
2026-04-20 06:42 -16.19973 53.15474 36043 ft 486 kts 310°
2026-04-20 06:42 -16.15167 53.10501 36042 ft 487 kts 310°
2026-04-20 06:43 -16.10347 53.05542 36037 ft 487 kts 310°
2026-04-20 06:43 -16.05527 53.00586 36036 ft 487 kts 310°
2026-04-20 06:44 -16.00707 52.95638 36034 ft 486 kts 311°
2026-04-20 06:44 -15.95893 52.90714 36033 ft 485 kts 311°
2026-04-20 06:45 -15.91081 52.85803 36041 ft 484 kts 311°
2026-04-20 06:45 -15.86286 52.80885 36036 ft 484 kts 311°
2026-04-20 06:46 -15.81502 52.75969 36037 ft 483 kts 311°
2026-04-20 06:46 -15.76750 52.71093 36039 ft 483 kts 311°
2026-04-20 06:47 -15.71964 52.66199 36038 ft 483 kts 311°
2026-04-20 06:47 -15.67181 52.61308 36040 ft 482 kts 311°
2026-04-20 06:48 -15.62394 52.56422 36040 ft 482 kts 311°
2026-04-20 06:48 -15.57606 52.51532 36035 ft 482 kts 311°
2026-04-20 06:49 -15.52830 52.46641 36033 ft 482 kts 310°
2026-04-20 06:49 -15.48058 52.41746 36033 ft 482 kts 310°
2026-04-20 06:50 -15.43287 52.36874 36035 ft 481 kts 311°
2026-04-20 06:50 -15.38538 52.32039 36034 ft 481 kts 311°
2026-04-20 06:51 -15.33760 52.27180 36035 ft 481 kts 311°
2026-04-20 06:51 -15.28992 52.22332 36035 ft 481 kts 311°
2026-04-20 06:52 -15.24216 52.17481 36034 ft 480 kts 311°
2026-04-20 06:52 -15.19438 52.12635 36036 ft 480 kts 311°
2026-04-20 06:53 -15.14668 52.07794 36036 ft 480 kts 311°
2026-04-20 06:53 -15.09890 52.02951 36036 ft 480 kts 311°
2026-04-20 06:54 -15.05145 51.98146 36035 ft 480 kts 311°
2026-04-20 06:54 -15.00370 51.93307 36032 ft 480 kts 311°
2026-04-20 06:55 -14.95604 51.88482 36028 ft 479 kts 311°
2026-04-20 06:55 -14.90841 51.83662 36031 ft 479 kts 311°
2026-04-20 06:56 -14.86071 51.78843 36036 ft 479 kts 311°
2026-04-20 06:56 -14.81299 51.74027 36034 ft 479 kts 311°
2026-04-20 06:57 -14.76528 51.69216 36020 ft 479 kts 311°
2026-04-20 06:57 -14.71751 51.64403 36036 ft 479 kts 311°
2026-04-20 06:58 -14.67012 51.59637 36028 ft 479 kts 311°
2026-04-20 06:58 -14.62241 51.54837 36036 ft 478 kts 311°
2026-04-20 06:59 -14.57470 51.50049 36033 ft 478 kts 311°
2026-04-20 06:59 -14.52683 51.45260 36035 ft 478 kts 311°
2026-04-20 07:00 -14.47919 51.40459 36035 ft 478 kts 311°
2026-04-20 07:00 -14.43206 51.35675 36027 ft 478 kts 311°
2026-04-20 07:01 -14.38454 51.30882 36026 ft 478 kts 311°
2026-04-20 07:01 -14.33696 51.26099 36037 ft 478 kts 311°
2026-04-20 07:02 -14.28929 51.21321 36036 ft 478 kts 311°
2026-04-20 07:02 -14.24148 51.16537 36035 ft 478 kts 311°
2026-04-20 07:03 -14.19379 51.11766 36027 ft 477 kts 311°
2026-04-20 07:03 -14.14610 51.06998 36033 ft 477 kts 311°
2026-04-20 07:04 -14.09836 51.02231 36030 ft 477 kts 312°
2026-04-20 07:04 -14.05062 50.97472 36031 ft 477 kts 312°
2026-04-20 07:05 -14.00321 50.92739 36029 ft 477 kts 311°
2026-04-20 07:05 -13.95553 50.87982 36033 ft 477 kts 311°
2026-04-20 07:06 -13.90786 50.83233 36037 ft 477 kts 311°
2026-04-20 07:06 -13.86007 50.78480 36035 ft 477 kts 312°
2026-04-20 07:07 -13.81228 50.73731 36025 ft 477 kts 312°
2026-04-20 07:07 -13.76450 50.68982 36031 ft 477 kts 312°
2026-04-20 07:08 -13.71705 50.64271 36030 ft 477 kts 311°
2026-04-20 07:08 -13.66917 50.59535 36029 ft 477 kts 311°
2026-04-20 07:09 -13.62141 50.54795 36026 ft 476 kts 311°
2026-04-20 07:09 -13.57400 50.50040 36031 ft 476 kts 311°
2026-04-20 07:10 -13.53452 50.46079 36026 ft 477 kts 311°
2026-04-20 07:10 -13.48689 50.41329 36025 ft 477 kts 311°
2026-04-20 07:11 -13.43904 50.36580 36023 ft 477 kts 311°
2026-04-20 07:11 -13.39123 50.31843 36022 ft 478 kts 311°
2026-04-20 07:12 -13.33566 50.26329 36023 ft 478 kts 311°
2026-04-20 07:12 -13.29559 50.22354 36019 ft 478 kts 311°
2026-04-20 07:13 -13.24795 50.17643 36025 ft 477 kts 311°
2026-04-20 07:13 -13.20008 50.12906 36014 ft 478 kts 311°
2026-04-20 07:14 -13.15222 50.08167 36014 ft 477 kts 311°
2026-04-20 07:14 -13.10436 50.03434 36050 ft 479 kts 311°
2026-04-20 07:14 -13.08026 50.01052 36281 ft 481 kts 311°
2026-04-20 07:15 -13.05620 49.98675 36717 ft 478 kts 311°
2026-04-20 07:15 -13.03234 49.96315 37147 ft 476 kts 311°
2026-04-20 07:15 -13.00856 49.93961 37523 ft 475 kts 310°
2026-04-20 07:15 -12.98486 49.91615 37830 ft 475 kts 310°
2026-04-20 07:16 -12.96123 49.89282 37950 ft 477 kts 311°
2026-04-20 07:16 -12.91324 49.84551 38003 ft 477 kts 310°
2026-04-20 07:17 -12.86551 49.79841 37999 ft 474 kts 310°
2026-04-20 07:17 -12.81831 49.75186 38002 ft 472 kts 310°
2026-04-20 07:18 -12.78021 49.70346 38022 ft 392 kts 279°
2026-04-20 07:18 -12.77978 49.67990 30978 ft 384 kts 272°
2026-04-20 07:18 -12.77484 49.65491 19507 ft 296 kts 316°
2026-04-20 07:18 -12.76551 49.64055 6555 ft 268 kts 298°
2026-04-20 07:19 -12.75049 49.61446 1851 ft 441 kts 297°
2026-04-20 07:19 -12.73667 49.58947 1233 ft 363 kts 298°
2026-04-20 07:19 -12.72993 49.56793 1275 ft 292 kts 269°
2026-04-20 07:19 -12.72651 49.54873 1411 ft 267 kts 273°
2026-04-20 07:20 -12.72371 49.53103 2199 ft 197 kts 263°
2026-04-20 07:20 -12.72196 49.52024 4099 ft 134 kts 265°
2026-04-20 07:20 -12.72074 49.51023 2902 ft 173 kts 275°
2026-04-20 07:20 -12.71957 49.49498 1398 ft 224 kts 270°
2026-04-20 07:21 -12.71726 49.47997 906 ft 200 kts 272°
2026-04-20 07:21 -12.71452 49.46682 387 ft 180 kts 279°
2026-04-20 07:21 -12.71167 49.45539 155 ft 147 kts 279°
2026-04-20 07:21 -12.71067 49.44726 123 ft 50 kts 311°